FW1564 Weather Reports


time (UTC)temp
C
wind
direction
speed
KPH
gust
KPH
rain 1hr
cm
rain 24hr
cm
rain mn
cm
humidity
%
barometer
mb
20260508012342 12 10 1.6 9.7 0.13 0.43 0.43 94 1009.2
20260508011342 12 77 8.0 11.3 0.13 0.38 0.38 93 1009.4
20260508010823 12 43 1.6 6.4 0.10 0.36 0.36 94 1009.6
20260508005342 12 172 3.2 12.9 0.10 0.36 0.36 94 1009.4
20260508004342 12 231 3.2 6.4 0.08 0.33 0.33 93 1009.7
20260508003342 12 80 4.8 6.4 0.10 0.33 0.33 93 1010.1
20260508002342 12 332 3.2 6.4 0.18 0.30 0.30 93 1010.1
20260508001342 12 258 0.0 4.8 0.25 0.25 0.25 93 1010.1
20260508000346 12 25 0.0 6.4 0.25 0.25 0.25 93 1010.0
20260507235342 11 357 1.6 11.3 0.25 0.25 0.25 92 1010.4
20260507234342 11 345 3.2 6.4 0.25 0.25 0.25 92 1010.6
20260507233342 11 357 1.6 6.4 0.23 0.23 0.23 91 1010.6
20260507232329 11 340 3.2 6.4 0.13 0.13 0.13 89 1010.7
20260507231330 12 346 3.2 4.8 0.00 0.00 0.00 86 1010.6
20260507230343 11 326 0.0 3.2 0.00 0.00 0.00 86 1010.9
20260507225330 11 330 3.2 4.8 0.00 0.00 0.00 86 1010.9
20260507224330 11 22 0.0 9.7 0.00 0.00 0.00 86 1011.1
20260507223330 11 325 3.2 6.4 0.00 0.00 0.00 86 1010.9
20260507222330 12 353 0.0 1.6 0.00 0.00 0.00 82 1011.0
20260507221331 12 236 0.0 3.2 0.00 0.00 0.00 78 1011.1
20260507220326 12 75 0.0 3.2 0.00 0.00 0.00 76 1011.1
20260507215326 12 52 4.8 9.7 0.00 0.00 0.00 77 1011.0
20260507214319 12 282 0.0 3.2 0.00 0.00 0.00 77 1011.2
20260507213320 12 182 0.0 4.8 0.00 0.00 0.00 76 1011.3
20260507212318 12 336 1.6 4.8 0.00 0.00 0.00 76 1011.4
20260507211322 12 141 1.6 4.8 0.00 0.00 0.00 75 1011.4
20260507210812 11 4 3.2 6.4 0.00 0.00 0.00 75 1011.4
20260507205801 11 11 3.2 6.4 0.00 0.00 0.00 76 1011.4
20260507204320 11 337 4.8 9.7 0.00 0.00 0.00 76 1011.4
20260507203321 11 343 3.2 4.8 0.00 0.00 0.00 75 1011.6
20260507202754 11 334 3.2 6.4 0.00 0.00 0.00 75 1011.2
20260507201324 11 19 0.0 4.8 0.00 0.00 0.00 74 1011.4
20260507200321 12 293 0.0 1.6 0.00 0.00 0.00 75 1011.3
20260507195322 12 357 1.6 9.7 0.00 0.00 0.00 75 1011.3
20260507194319 12 336 1.6 4.8 0.00 0.00 0.00 75 1011.3
20260507193320 12 271 1.6 4.8 0.00 0.00 0.00 73 1011.3
20260507192322 13 354 0.0 3.2 0.00 0.00 0.00 73 1011.2
20260507191806 13 257 0.0 4.8 0.00 0.00 0.00 73 1011.2
20260507190320 13 298 0.0 3.2 0.00 0.00 0.00 74 1011.3
20260507185745 13 67 1.6 6.4 0.00 0.00 0.00 73 1011.5
20260507184307 13 127 3.2 6.4 0.00 0.00 0.00 73 1011.5
20260507183255 13 126 1.6 11.3 0.00 0.00 0.00 72 1011.4
20260507182243 13 114 6.4 11.3 0.00 0.00 0.00 72 1011.4
20260507181243 13 165 3.2 9.7 0.00 0.00 0.00 72 1011.4
20260507180243 13 131 4.8 12.9 0.00 0.00 0.00 71 1011.3
20260507175242 13 120 4.8 11.3 0.00 0.00 0.00 71 1011.4
20260507174241 13 108 1.6 14.5 0.00 0.00 0.00 72 1011.3
20260507173242 13 243 3.2 9.7 0.00 0.00 0.00 73 1011.4
20260507172244 13 142 4.8 12.9 0.00 0.00 0.00 72 1011.4
20260507171242 13 152 6.4 11.3 0.00 0.00 0.00 72 1011.4
20260507170737 14 282 1.6 12.9 0.00 0.00 0.00 71 1011.2
20260507165242 15 168 4.8 12.9 0.00 0.00 0.00 70 1011.2
20260507165152 15 120 6.4 14.5 0.00 0.00 0.00 70 1011.2
20260507163242 15 73 12.9 16.1 0.00 0.00 0.00 67 1011.4
20260507162242 15 253 3.2 17.7 0.00 0.00 0.00 70 1011.5
20260507161242 15 140 8.0 20.9 0.00 0.00 0.00 71 1011.7
20260507160725 15 112 6.4 20.9 0.00 0.00 0.00 68 1011.6
20260507155243 15 125 3.2 12.9 0.00 0.00 0.00 67 1011.7
20260507154725 14 246 0.0 9.7 0.00 0.00 0.00 64 1011.6
20260507153244 14 182 1.6 11.3 0.00 0.00 0.00 63 1011.7
20260507152244 14 147 4.8 6.4 0.00 0.00 0.00 64 1011.6
20260507151243 14 168 3.2 11.3 0.00 0.00 0.00 63 1011.7
20260507150801 13 175 3.2 6.4 0.00 0.00 0.00 66 1011.7
20260507145242 13 132 1.6 11.3 0.00 0.00 0.00 68 1012.3
20260507144242 14 99 4.8 12.9 0.00 0.00 0.00 66 1012.4
20260507143242 13 189 8.0 11.3 0.00 0.00 0.00 63 1012.6
20260507142242 13 135 3.2 11.3 0.00 0.00 0.00 63 1012.8
20260507141242 14 116 8.0 12.9 0.00 0.00 0.00 62 1013.0
20260507140242 14 129 3.2 9.7 0.00 0.00 0.00 62 1013.0
20260507135242 14 68 4.8 11.3 0.00 0.00 0.00 60 1013.1
20260507134242 15 110 9.7 11.3 0.00 0.00 0.00 60 1013.1
20260507133243 15 188 3.2 12.9 0.00 0.00 0.00 61 1013.1
20260507132242 15 159 1.6 11.3 0.00 0.00 0.00 61 1013.3
20260507131242 16 81 3.2 6.4 0.00 0.00 0.00 57 1013.3
20260507130242 15 196 1.6 14.5 0.00 0.00 0.00 59 1013.5
20260507125725 15 151 3.2 16.1 0.00 0.00 0.00 59 1013.7
20260507124242 15 127 4.8 12.9 0.00 0.00 0.00 59 1013.9
20260507123717 15 158 3.2 16.1 0.00 0.00 0.00 59 1013.9
20260507122242 15 89 3.2 17.7 0.00 0.00 0.00 60 1014.0
20260507121241 15 155 4.8 11.3 0.00 0.00 0.00 63 1014.0
20260507120242 14 139 8.0 16.1 0.00 0.00 0.00 67 1014.3
20260507115242 13 162 1.6 9.7 0.00 0.00 0.00 79 1014.5
20260507114242 13 171 4.8 11.3 0.00 0.00 0.00 80 1014.4
20260507113242 13 141 4.8 6.4 0.00 0.00 0.00 79 1014.2
20260507112729 13 126 3.2 11.3 0.00 0.00 0.00 79 1014.4
20260507111242 12 193 1.6 11.3 0.00 0.00 0.00 79 1014.3
20260507110733 12 221 0.0 11.3 0.00 0.00 0.00 79 1014.5
20260507105243 12 224 4.8 9.7 0.00 0.00 0.00 78 1014.6
20260507104242 13 140 8.0 12.9 0.00 0.00 0.00 78 1014.4
20260507103723 13 157 4.8 11.3 0.00 0.00 0.00 76 1014.3
20260507102242 13 129 3.2 11.3 0.00 0.00 0.00 78 1014.2
20260507101714 13 130 6.4 9.7 0.00 0.00 0.00 75 1014.2
20260507100243 13 96 3.2 6.4 0.00 0.00 0.00 77 1014.2
20260507095242 13 135 3.2 6.4 0.00 0.00 0.00 79 1014.1
20260507094242 13 149 6.4 11.3 0.00 0.00 0.00 80 1014.3
20260507093731 13 105 3.2 4.8 0.00 0.00 0.00 82 1014.1
20260507093151 12 207 4.8 6.4 0.00 0.00 0.00 82 1014.0
20260507091242 13 121 3.2 9.7 0.00 0.00 0.00 83 1014.2
20260507090243 13 153 1.6 11.3 0.00 0.00 0.00 84 1014.3
20260507085242 12 116 1.6 4.8 0.00 0.00 0.00 84 1014.0
20260507084242 12 90 0.0 6.4 0.00 0.00 0.00 84 1014.2
20260507083242 12 175 3.2 9.7 0.00 0.00 0.00 85 1014.1
20260507082242 12 176 1.6 4.8 0.00 0.00 0.00 84 1013.9
20260507081242 12 121 0.0 6.4 0.00 0.00 0.00 83 1013.9
20260507080242 12 78 1.6 3.2 0.00 0.00 0.00 82 1014.0
20260507075242 12 1 0.0 3.2 0.00 0.00 0.00 81 1013.9
20260507074724 12 355 0.0 0.0 0.00 0.00 0.00 80 1014.0
20260507073242 11 334 0.0 3.2 0.00 0.00 0.00 80 1014.0
20260507072245 11 1 1.6 3.2 0.00 0.00 0.00 78 1013.8
20260507071243 11 331 1.6 4.8 0.00 0.00 0.00 80 1013.7
20260507070716 11 12 3.2 4.8 0.00 0.00 0.00 79 1013.7
20260507065731 11 353 1.6 3.2 0.00 0.00 0.00 79 1013.5
20260507064242 11 355 1.6 6.4 0.00 0.00 0.00 77 1013.3
20260507063243 11 344 3.2 4.8 0.00 0.00 0.00 76 1013.3
20260507062242 11 12 3.2 6.4 0.00 0.00 0.00 77 1013.0
20260507061243 11 334 4.8 6.4 0.00 0.00 0.00 78 1013.1
20260507060721 11 341 4.8 9.7 0.00 0.00 0.00 78 1013.2
20260507055247 11 331 6.4 9.7 0.00 0.00 0.00 77 1013.1
20260507054242 11 308 6.4 9.7 0.00 0.00 0.00 77 1013.3
20260507053715 11 318 4.8 9.7 0.00 0.00 0.00 76 1013.3
20260507052242 11 349 4.8 9.7 0.00 0.00 0.00 75 1013.4
20260507051242 11 341 6.4 9.7 0.00 0.00 0.00 75 1013.3
20260507050242 11 348 4.8 6.4 0.00 0.00 0.00 75 1013.2
20260507045242 11 338 4.8 4.8 0.00 0.00 0.00 75 1013.4
20260507044243 11 340 3.2 4.8 0.00 0.00 0.00 75 1013.6
20260507043242 11 346 1.6 6.4 0.00 0.00 0.00 75 1013.5
20260507042724 12 336 3.2 6.4 0.00 0.00 0.00 75 1013.5
20260507041242 11 358 4.8 6.4 0.00 0.00 0.00 74 1013.5
20260507040242 11 329 6.4 9.7 0.00 0.00 0.00 70 1013.8
20260507035242 11 347 4.8 9.7 0.00 0.00 0.00 71 1013.7
20260507034244 11 342 4.8 6.4 0.00 0.00 0.00 69 1013.7
20260507033243 11 345 3.2 9.7 0.00 0.00 0.00 70 1013.7
20260507032243 11 338 4.8 9.7 0.00 0.00 0.00 69 1013.8
20260507031729 11 333 4.8 9.7 0.00 0.00 0.00 68 1013.9
20260507030244 11 343 4.8 9.7 0.00 0.00 0.00 69 1013.9
20260507025244 11 352 4.8 9.7 0.00 0.00 0.00 69 1014.1
20260507024724 11 344 6.4 11.3 0.00 0.00 0.00 68 1013.9
20260507023242 11 351 6.4 11.3 0.00 0.00 0.00 68 1014.2
20260507022736 11 339 6.4 11.3 0.00 0.00 0.00 68 1014.5
20260507021242 11 20 8.0 9.7 0.00 0.00 0.00 69 1014.7
20260507020735 11 339 6.4 11.3 0.00 0.00 0.00 68 1014.5
20260507015242 11 337 8.0 9.7 0.00 0.00 0.00 69 1014.6
20260507014242 10 343 4.8 9.7 0.00 0.00 0.00 73 1014.8
20260507013241 11 345 4.8 9.7 0.00 0.00 0.00 72 1015.1